Regional Weather Roundup
Issued by NWS

Home | Current Version | Previous Version | Text Only | Print | Product List | Glossary On
Versions: 1 2 3 4 5 6 7 8 9 10 11 12 13 14 15 16 17 18 19 20 21 22 23 24 25 26 27 28 29 30 31 32 33 34 35 36 37 38 39 40 41 42 43 44 45 46 47 48 49 50
798
ASUS43 KDTX 312210
RWRMI
MICHIGAN HOURLY REGIONAL WEATHER ROUNDUP
NATIONAL WEATHER SERVICE DETROIT/PONTIAC MI
600 PM EDT WED AUG 31 2016

NOTE: "FAIR" INDICATES FEW OR NO CLOUDS BELOW 12,000 FEET WITH NO
SIGNIFICANT WEATHER AND/OR OBSTRUCTION TO VISIBILITY.

MIZ047>049-052>055-059>063-066>070-074>076-081>083-312300-
SOUTHEAST LOWER MICHIGAN

CITY           SKY/WX    TMP DP  RH WIND       PRES   REMARKS
ADRIAN         CLOUDY    75  65  70 NE15      29.99R
ALMA           MOSUNNY   76  56  50 N8        30.03S
ANN ARBOR      PTSUNNY   76  61  59 N13       29.98S
BAD AXE        SUNNY     70  50  49 NE9       30.03S
CARO           SUNNY     71  53  52 NE5       30.02S
DETROIT CITY   MOSUNNY   76  60  57 N10       29.98S
DETROIT        PTSUNNY   77  60  55 N13       29.97S
FLINT          MOSUNNY   74  57  55 NE14      30.01S
GROSSE ILE     CLOUDY    76  64  66 NE12      29.95S
HILLSDALE      PTSUNNY   74  64  69 N8        30.00S
HOWELL         SUNNY     73  55  54 N6        30.01S

CITY           SKY/WX    TMP DP  RH WIND       PRES   REMARKS
JACKSON        CLOUDY    75  59  57 N7        30.01R
LAMBERTVILLE   CLOUDY    78  67  70 N7        29.97S
LANSING        MOSUNNY   74  55  51 N7        30.02S
LAPEER         FAIR      73  57  57 NE9G20    30.02R
MASON          MOSUNNY   74  58  59 N7        30.01S
MONROE         CLOUDY    76  66  71 N9        29.95S
MT. CLEMENS    PTSUNNY   76  60  58 N14G20    29.97S
PONTIAC        PTSUNNY   74  55  51 N14       29.99F
PORT HOPE        N/A     71  58  63 N12G17    30.02S
PORT HURON     MOSUNNY   72  61  68 N14       30.00R
TRI CITIES     PTSUNNY   72  60  66 NE10      30.03S
MIDLAND        PTSUNNY   73  56  54 N3        30.02S
TROY           MOSUNNY   77  56  47 NW12      30.00S
SAGINAW HB     SUNNY     73  57  56 NE8       30.02S
$$
MIZ043>046-050>051-056>058-064>065-071>073-077>080-312300-
SOUTHWEST LOWER MICHIGAN

CITY           SKY/WX    TMP DP  RH WIND       PRES   REMARKS
BATTLE CREEK   MOSUNNY   75  62  64 N9        30.02S
BENTON HARBOR  SUNNY     74  60  61 N8        30.04R
BIG RAPIDS     CLOUDY    74  49  40 N12       30.06R
COLDWATER      MOSUNNY   75  59  58 N10G21    30.00S
FREMONT        PTSUNNY   75  45  34 NE8G17    30.05S
HOLLAND        SUNNY     77  56  48 VRB7      30.04R
GRAND RAPIDS   MOSUNNY   76  55  48 N12       30.03R
IONIA          FAIR      74  53  48 N8G16     30.02S
KALAMAZOO      MOSUNNY   75  58  55 N7        30.01S
LUDINGTON      MOSUNNY   72  56  57 N13G21    30.07S
MARSHALL       CLOUDY    75  60  58 N6        30.01S
MOUNT PLEASANT PTSUNNY   75  54  47 N5        30.03S
MUSKEGON       MOSUNNY   75  54  47 N13G21    30.05R
SOUTH HAVEN    SUNNY     75  64  67 N14G22    30.03S
$$
MIZ016>042-312300-
NORTHERN LOWER MICHIGAN

CITY           SKY/WX    TMP DP  RH WIND       PRES   REMARKS
ALPENA         MOSUNNY   72  50  45 N9        30.04S
BEAVER ISLAND  CLOUDY    69  56  62 NW8       30.09S
BELLAIRE       CLOUDY    71  54  55 NW8       30.07F
CADILLAC       PTSUNNY   70  52  51 N10G18    30.08S
CHARLEVOIX     CLOUDY    71  55  58 NW10G17   30.10S
FRANKFORT      PTSUNNY   73  55  53 N7        30.09S
GAYLORD        CLOUDY    68  52  56 VRB6      30.08S
GRAYLING       CLOUDY    71  54  55 N8        30.08S
HARBOR SPRINGS CLOUDY    70  55  58 NW7       30.07S
HOUGHTON LAKE  PTSUNNY   70  51  51 NW10      30.07S
MANISTEE       PTSUNNY   73  58  59 NW14G21   30.08R
OSCODA         CLOUDY    71  57  60 NE8       30.02S
PELLSTON       CLOUDY    71  53  52 NW15G22   30.07S
ROGERS CITY    PTSUNNY   72  53  49 NW15G24   30.05S
TRAVERSE CITY  PTSUNNY   73  54  51 N10       30.07S
$$
MIZ007>008-015-312300-
EASTERN UPPER MICHIGAN

CITY           SKY/WX    TMP DP  RH WIND       PRES   REMARKS
KINROSS        SUNNY     67  54  63 NW15      30.07R
MACKINAC ISLAN MOSUNNY   70  55  58 NW10      30.06S
NEWBERRY       PTSUNNY   67  53  61 NW8G16    30.10S
S. S. MARIE    CLOUDY    68  57  68 NW14G22   30.06S
MUNISING         N/A     66  60  81 N12       30.13S
$$
MIZ004>006-011>014-085-312300-
CENTRAL UPPER MICHIGAN

CITY           SKY/WX    TMP DP  RH WIND       PRES   REMARKS
MANISTIQUE     CLOUDY    67  55  64 N10       30.10R
ESCANABA       CLOUDY    69  56  62 N10       30.11
MENOMINEE      CLOUDY   N/A N/A N/A E9        30.12S
SAWYER-GWINN   CLOUDY    63  57  82 N9        30.15S
$$
MIZ001>003-009>011-084-312300-
WESTERN UPPER MICHIGAN

CITY           SKY/WX    TMP DP  RH WIND       PRES   REMARKS
IRON MOUNTAIN  CLOUDY    68  53  58 N9        30.13S
HOUGHTON       CLOUDY    66  54  65 N9        30.16S
COPPER HARBOR    N/A     66  57  72 N12       30.15S
IRONWOOD       CLOUDY    66  53  63 N8        30.20S
$$

ABBREVIATIONS USED IN REMARKS
   TC - TEMPERATURE IN CELSIUS
  WCI - WIND CHILL INDEX
   HX - HEAT INDEX
  VSB - VISIBILITY





USA.gov is the U.S. government's official web portal to all federal, state and local government web resources and services.